Location: Melizzano
(41.1500°N, 14.5000°E)
Time: 18:33:22
(UTC+00:00)

SL-4 R/B - Pass Details

Date: 11 May 2021
Orbit: 427 x 663 km, 51.6° (Epoch: 21 June)

Event Time Altitude Azimuth Distance (km) Brightness Sun altitude
Rises 19:16:28 0° 298° (WNW) 2,779 7.6 -11.6°
Reaches altitude 10° 19:18:50 10° 288° (WNW) 1,917 6.0 -12.0°
Maximum altitude 19:22:46 32° 226° (SW) 1,056 3.5 -12.6°
Enters shadow 19:26:18 13° 166° (SSE) 1,816 4.2 -13.1°
